Las Cruces, NM

7:25 AM MDT on April 26, 2017 (GMT -0600)
Las Cruces International

Weather History for KLRU - May, 2014

Change the Weather History Date:

Saturday, May 31, 2014

  Actual Average Record
Temperature  
Mean Temperature 80 °F -  
Max Temperature 98 °F 90 °F 98 °F (2002)
Min Temperature 62 °F 60 °F 55 °F (2011)
Cooling Degree Days 15    
Growing Degree Days 30 (Base 50)    
Moisture  
Dew Point 38 °F    
Average Humidity 23    
Maximum Humidity 45    
Minimum Humidity 10    
Precipitation  
Precipitation 0.00 in - - ()
Sea Level Pressure  
Sea Level Pressure 30.02 in    
Wind  
Wind Speed 6 mph (South)    
Max Wind Speed 15 mph    
Max Gust Speed 22 mph    
Visibility 10 miles    
Events      
Averages and records for this station are not official NWS values.
T = Trace of Precipitation, MM = Missing Value Source: NWS Daily Summary

Daily Weather History Graph

Daily Weather History Graph

Search for Another Location

Airport or City:

Trip Planner

Search our weather history database for the weather conditions in past years. The results will help you decide how hot, cold, wet, or windy it might be!

Date:

Astronomy

May. 31, 2014 Rise Set
Actual Time 6:01 AM MDT 8:09 PM MDT
Civil Twilight 5:34 AM MDT 8:37 PM MDT
Nautical Twilight 5:00 AM MDT 9:11 PM MDT
Astronomical Twilight 4:23 AM MDT 9:47 PM MDT
Moon 8:37 AM MDT (5/31) 10:34 PM MDT (5/31)
Length of Visible Light 15h 02m
Length of Day
14h 07m
Waxing Crescent, 9% of the Moon is Illuminated
May 31
Waxing Crescent
Jun 5
First Quarter
Jun 12
Full
Jun 19
Last Quarter
Jun 27
New

Hourly Weather History & Observations

Time (MDT) Temp. Dew Point Humidity Pressure Visibility Wind Dir Wind Speed Gust Speed Precip Events Conditions
12:15 AM 75.2 °F 43.9 °F 33% 30.03 in 10.0 mi SE 5.8 mph - N/A   Clear
12:35 AM 75.2 °F 43.9 °F 33% 30.03 in 10.0 mi SE 5.8 mph - N/A   Clear
12:55 AM 74.5 °F 43.7 °F 33% 30.03 in 10.0 mi SE 5.8 mph - N/A   Clear
1:15 AM 74.3 °F 43.7 °F 33% 30.03 in 10.0 mi SE 5.8 mph - N/A   Clear
1:35 AM 74.3 °F 43.7 °F 33% 30.03 in 10.0 mi SE 5.8 mph - N/A   Clear
1:55 AM 73.8 °F 43.7 °F 34% 30.03 in 10.0 mi SE 5.8 mph - N/A   Clear
2:15 AM 73.4 °F 43.7 °F 34% 30.03 in 10.0 mi SE 5.8 mph - N/A   Clear
2:35 AM 72.5 °F 43.5 °F 35% 30.03 in 10.0 mi SE 4.6 mph - N/A   Clear
2:55 AM 72.3 °F 43.7 °F 36% 30.03 in 10.0 mi SE 5.8 mph - N/A   Clear
3:15 AM 71.2 °F 43.9 °F 37% 30.03 in 10.0 mi SE 4.6 mph - N/A   Clear
3:35 AM 70.7 °F 44.1 °F 38% 30.03 in 10.0 mi SSE 3.5 mph - N/A   Clear
3:55 AM 68.4 °F 43.5 °F 41% 30.04 in 10.0 mi Calm Calm - N/A   Clear
4:15 AM 66.2 °F 42.3 °F 42% 30.04 in 10.0 mi Calm Calm - N/A   Clear
4:35 AM 62.6 °F 40.3 °F 44% 30.04 in 10.0 mi Calm Calm - N/A   Clear
4:55 AM 63.1 °F 41.2 °F 45% 30.04 in 10.0 mi Calm Calm - N/A   Clear
5:15 AM 65.3 °F 42.6 °F 44% 30.04 in 10.0 mi SSE 3.5 mph - N/A   Clear
5:35 AM 62.8 °F 40.5 °F 44% 30.04 in 10.0 mi SSE 4.6 mph - N/A   Clear
5:55 AM 68.2 °F 43.7 °F 41% 30.05 in 10.0 mi SSE 4.6 mph - N/A   Clear
6:15 AM 68.4 °F 43.9 °F 41% 30.05 in 10.0 mi SSE 5.8 mph - N/A   Clear
6:35 AM 69.1 °F 44.1 °F 40% 30.06 in 10.0 mi SSE 5.8 mph - N/A   Clear
6:55 AM 71.8 °F 44.1 °F 37% 30.07 in 10.0 mi SSE 4.6 mph - N/A   Clear
7:15 AM 74.3 °F 43.9 °F 34% 30.07 in 10.0 mi Calm Calm - N/A   Clear
7:35 AM 76.1 °F 44.1 °F 32% 30.07 in 10.0 mi ESE 5.8 mph - N/A   Clear
7:55 AM 77.2 °F 43.9 °F 31% 30.07 in 10.0 mi ESE 5.8 mph - N/A   Clear
8:15 AM 79.0 °F 44.1 °F 29% 30.08 in 10.0 mi SE 6.9 mph - N/A   Clear
8:35 AM 80.2 °F 43.9 °F 28% 30.08 in 10.0 mi SSE 6.9 mph - N/A   Clear
8:55 AM 81.7 °F 43.7 °F 26% 30.08 in 10.0 mi South 9.2 mph - N/A   Clear
9:15 AM 82.2 °F 43.3 °F 25% 30.08 in 10.0 mi South 6.9 mph - N/A   Clear
9:35 AM 83.7 °F 43.3 °F 24% 30.08 in 10.0 mi South 10.4 mph - N/A   Clear
9:55 AM 84.4 °F 43.3 °F 24% 30.08 in 10.0 mi SSE 8.1 mph - N/A   Clear
10:15 AM 85.5 °F 43.0 °F 22% 30.08 in 10.0 mi South 8.1 mph - N/A   Clear
10:35 AM 87.3 °F 42.8 °F 21% 30.08 in 10.0 mi South 8.1 mph - N/A   Clear
10:55 AM 88.0 °F 42.1 °F 20% 30.08 in 10.0 mi SSE 6.9 mph - N/A   Clear
11:15 AM 89.1 °F 41.4 °F 19% 30.08 in 10.0 mi South 6.9 mph - N/A   Clear
11:35 AM 90.5 °F 41.0 °F 18% 30.07 in 10.0 mi SSE 8.1 mph - N/A   Clear
11:55 AM 91.0 °F 39.9 °F 17% 30.07 in 10.0 mi South 3.5 mph - N/A   Clear
12:15 PM 91.4 °F 38.8 °F 16% 30.06 in 10.0 mi ESE 5.8 mph - N/A   Clear
12:35 PM 93.0 °F 36.1 °F 14% 30.05 in 10.0 mi Calm Calm - N/A   Clear
12:55 PM 93.7 °F 36.3 °F 13% 30.04 in 10.0 mi South 6.9 mph - N/A   Clear
1:15 PM 94.8 °F 36.3 °F 13% 30.04 in 10.0 mi SSE 6.9 mph 16.1 mph N/A   Scattered Clouds
1:35 PM 95.2 °F 35.6 °F 12% 30.03 in 10.0 mi South 8.1 mph 21.9 mph N/A   Scattered Clouds
1:55 PM 95.9 °F 36.0 °F 12% 30.02 in 10.0 mi SSE 6.9 mph - N/A   Scattered Clouds
2:15 PM 94.3 °F 34.9 °F 12% 30.02 in 10.0 mi South 5.8 mph 19.6 mph N/A   Scattered Clouds
2:35 PM 95.0 °F 34.7 °F 12% 30.01 in 10.0 mi SW 8.1 mph - N/A   Scattered Clouds
2:55 PM 95.5 °F 34.7 °F 12% 30.00 in 10.0 mi South 11.5 mph - N/A   Scattered Clouds
3:15 PM 97.2 °F 34.5 °F 11% 29.99 in 10.0 mi South 13.8 mph 18.4 mph N/A   Clear
3:35 PM 96.3 °F 33.8 °F 11% 29.99 in 10.0 mi South 12.7 mph 18.4 mph N/A   Clear
3:55 PM 96.8 °F 34.0 °F 11% 29.98 in 10.0 mi South 10.4 mph 16.1 mph N/A   Clear
4:15 PM 98.2 °F 32.9 °F 10% 29.98 in 10.0 mi South 9.2 mph - N/A   Clear
4:35 PM 96.1 °F 32.9 °F 11% 29.97 in 10.0 mi West 6.9 mph - N/A   Clear
4:55 PM 97.9 °F 32.7 °F 10% 29.96 in 10.0 mi SW 15.0 mph 21.9 mph N/A   Clear
5:15 PM 97.2 °F 32.4 °F 10% 29.95 in 10.0 mi South 9.2 mph 16.1 mph N/A   Clear
5:35 PM 96.6 °F 32.7 °F 11% 29.95 in 10.0 mi South 11.5 mph 21.9 mph N/A   Clear
5:55 PM 97.0 °F 33.1 °F 11% 29.95 in 10.0 mi SSE 5.8 mph 16.1 mph N/A   Clear
6:15 PM 96.6 °F 31.8 °F 10% 29.94 in 10.0 mi WSW 10.4 mph 19.6 mph N/A   Clear
6:35 PM 95.5 °F 31.8 °F 11% 29.94 in 10.0 mi WSW 9.2 mph - N/A   Clear
6:55 PM 95.2 °F 32.0 °F 11% 29.94 in 10.0 mi WSW 12.7 mph - N/A   Clear
7:15 PM 94.8 °F 32.0 °F 11% 29.94 in 10.0 mi WSW 6.9 mph - N/A   Clear
7:35 PM 94.3 °F 32.0 °F 11% 29.94 in 10.0 mi WSW 10.4 mph - N/A   Clear
7:55 PM 92.8 °F 32.0 °F 12% 29.94 in 10.0 mi WSW 8.1 mph - N/A   Clear
8:15 PM 90.5 °F 31.8 °F 12% 29.94 in 10.0 mi SW 5.8 mph - N/A   Clear
8:35 PM 88.7 °F 31.6 °F 13% 29.94 in 10.0 mi SW 5.8 mph - N/A   Clear
8:55 PM 86.5 °F 31.1 °F 14% 29.95 in 10.0 mi SW 5.8 mph - N/A   Clear
9:15 PM 85.5 °F 31.1 °F 14% 29.95 in 10.0 mi West 8.1 mph - N/A   Clear
9:35 PM 83.3 °F 30.6 °F 15% 29.95 in 10.0 mi West 8.1 mph - N/A   Clear
9:55 PM 81.3 °F 30.0 °F 15% 29.96 in 10.0 mi West 4.6 mph - N/A   Clear
10:15 PM 79.2 °F 30.4 °F 17% 29.97 in 10.0 mi West 5.8 mph - N/A   Clear
10:35 PM 77.9 °F 30.2 °F 17% 29.96 in 10.0 mi West 6.9 mph - N/A   Clear
10:55 PM 77.9 °F 30.0 °F 17% 29.96 in 10.0 mi WSW 8.1 mph - N/A   Clear
11:15 PM 78.1 °F 29.5 °F 17% 29.97 in 10.0 mi West 10.4 mph - N/A   Clear
11:35 PM 79.3 °F 27.5 °F 15% 29.97 in 10.0 mi West 11.5 mph - N/A   Clear